Starlink 1667

operational
NORAD ID: 46155 Int'l Des: 2020-057 Owner: SPXS Country: US Constellation: starlink
LEOCIRCULAR

Starlink 1667について

説明を読み込み中...

リアルタイム位置

3D地球を読み込み中...

次回通過

高度履歴

Altitude vs Time

uPlot chart will show altitude changes over time

軌道要素

1 46155U 20057AQ 26034.66668981 .00131297 00000-0 19752-2 0 9999
2 46155 53.0286 30.4425 0008645 29.2358 42.2786 15.53886490 5864
Epoch: Feb 3, 2026 • Age: 14 hours

現在のステータス

高度 408.6 km
速度 7.67 km/s
衛星直下点 27.77°N, 43.13°W
打ち上げ日 Aug 18, 2020
運用期間 5.4 years
タイプ internet

技術仕様

分類 Payload
質量 260.00 kg
乾燥質量 248.00 kg
総質量 260.00 kg
長さ 0.20 m
直径 2.80 m
スパン 9.00 m
形状 Box + pan
製造者 SPXS
バスタイプ Starlink
フェーズステータス In Orbit
所有者/国 SPXS/US

大規模コンステレーション

Loading constellations...